Weather History for Buenos Aires, Argentina

Change the Weather History Date:

Wednesday, January 30, 2013

  Actual Average Record
Temperature  
Mean Temperature 81 °F -  
Max Temperature 87 °F 81 °F 95 °F (2003)
Min Temperature 75 °F 67 °F 62 °F (1998)
Cooling Degree Days 16    
Growing Degree Days 31 (Base 50)    
Moisture  
Dew Point 70 °F    
Average Humidity 68    
Maximum Humidity 83    
Minimum Humidity 49    
Precipitation  
Precipitation 0.00 in 0.14 in - ()
Sea Level Pressure  
Sea Level Pressure 29.87 in    
Wind  
Wind Speed 7 mph ()    
Max Wind Speed 16 mph    
Max Gust Speed -    
Visibility 6.2 miles    
Events      
Averages and records for this station are not official NWS values.
T = Trace of Precipitation, MM = Missing Value Source: Averaged Metar Reports

Daily Weather History Graph

Daily Weather History Graph

Search for Another Location

Airport:

Trip Planner

Search our weather history database for the weather conditions in past years. The results will help you decide how hot, cold, wet, or windy it might be!

Date:

Astronomy

Jan. 30, 2013 Rise Set
Actual Time 6:12 AM ART 8:01 PM ART
Civil Twilight 5:44 AM ART 8:28 PM ART
Nautical Twilight 5:11 AM ART 9:01 PM ART
Astronomical Twilight 4:36 AM ART 9:37 PM ART
Moon 9:47 PM ART (1/30) 9:30 AM ART (1/30)
Length of Visible Light 14h 44m
Length of Day
13h 49m
Waning Gibbous, 88% of the Moon is Illuminated
Jan 30
Waning Gibbous
Feb 3
Last Quarter
Feb 10
New
Feb 17
First Quarter
Feb 25
Full

Hourly Weather History & Observations

Time (ART) Temp. Heat Index Dew Point Humidity Pressure Visibility Wind Dir Wind Speed Gust Speed Precip Events Conditions
12:00 AM 78.8 °F - 68.0 °F 69% 29.92 in - East 16.1 mph - N/A   Clear
1:00 AM 78.8 °F - 68.0 °F 69% 29.92 in - ESE 11.5 mph - N/A   Clear
2:00 AM 77.0 °F - 66.2 °F 69% 29.89 in - East 12.7 mph - N/A   Clear
3:00 AM 77.0 °F - 66.2 °F 69% 29.89 in - East 5.8 mph - N/A   Clear
4:00 AM 77.0 °F - 66.2 °F 69% 29.89 in - East 4.6 mph - N/A   Clear
5:00 AM 75.2 °F - 69.8 °F 83% 29.86 in - East 4.6 mph - N/A   Clear
6:00 AM 77.0 °F - 69.8 °F 78% 29.86 in - NE 4.6 mph - N/A   Clear
7:00 AM 78.8 °F - 68.0 °F 69% 29.92 in 6.2 mi SSW 9.2 mph - N/A   Unknown
8:00 AM 77.0 °F - 68.0 °F 74% 29.92 in 6.2 mi South 11.5 mph - N/A   Unknown
9:00 AM 79 °F - 68 °F 60% 29.91 in 6 mi SSE 5.8 mph - -  
9:00 AM 78.8 °F - 68.0 °F 69% 29.89 in 6.2 mi SSE 5.8 mph - N/A   Unknown
10:00 AM 78.8 °F - 68.0 °F 69% 29.89 in 6.2 mi ESE 9.2 mph - N/A   Unknown
11:00 AM 78.8 °F - 69.8 °F 74% 29.89 in 6.2 mi ESE 11.5 mph - N/A   Unknown
12:00 PM 80 °F - 70 °F 64% 29.90 in 6 mi ENE 5.8 mph - -  
12:00 PM 78.8 °F - 69.8 °F 74% 29.89 in 6.2 mi ENE 5.8 mph - N/A   Unknown
1:00 PM 80.6 °F 84.6 °F 71.6 °F 74% 29.89 in 6.2 mi East 3.5 mph - N/A   Unknown
2:00 PM 82.4 °F 87.2 °F 71.6 °F 70% 29.86 in 6.2 mi ENE 3.5 mph - N/A   Partly Cloudy
3:00 PM 83 °F - 72 °F 61% 29.86 in 6 mi ENE 4.6 mph - -   Scattered Clouds
3:00 PM 82.4 °F 87.2 °F 71.6 °F 70% 29.86 in 6.2 mi ENE 4.6 mph - N/A   Partly Cloudy
4:00 PM 84.2 °F 90.9 °F 73.4 °F 70% 29.83 in 6.2 mi ENE 6.9 mph - N/A   Scattered Clouds
5:00 PM 86.0 °F 93.4 °F 73.4 °F 66% 29.80 in 6.2 mi NE 3.5 mph - N/A   Partly Cloudy
6:00 PM 86 °F - 74 °F 59% 29.80 in 6 mi NE 4.6 mph - -   Scattered Clouds
6:00 PM 86.0 °F 93.4 °F 73.4 °F 66% 29.80 in 6.2 mi NE 4.6 mph - N/A   Partly Cloudy
7:00 PM 87.8 °F 92.6 °F 69.8 °F 55% 29.80 in 6.2 mi East 2.3 mph - N/A   Partly Cloudy
8:00 PM 86.0 °F 89.4 °F 68.0 °F 55% 29.80 in 6.2 mi NW 1.2 mph - N/A   Partly Cloudy
9:00 PM 87.8 °F 90.4 °F 66.2 °F 49% 29.80 in - South 5.8 mph - N/A   Clear
10:00 PM 82.4 °F 89.5 °F 75.2 °F 79% 29.83 in - East 16.1 mph - N/A   Clear
11:00 PM 78.8 °F - 73.4 °F 83% 29.86 in - ESE 10.4 mph - N/A   Clear